{"data":{"norad_id":67937,"intl_designator":"2026-037F","name":"STARLINK-36370","alt_names":[],"object_type":"PAYLOAD","status":"ACTIVE","operator":null,"country":"US","launch_date":"2026-02-24","launch_site_code":"AFETR","launch_vehicle":null,"mission":null,"orbit_class":"UNKNOWN","rcs_meters":null,"size_class":null,"mass_kg":null,"dimensions":null,"purposes":["comms"],"wikipedia_slug":null,"has_3d_model":false,"image_url":null,"decayed_at":null,"tle_current":{"epoch":"2026-09-19T03:19:44.095584Z","epoch_age_seconds":180864,"freshness":"STALE","line1":"1 67937U 26037F   26262.13870481  .00012514  00000+0  46336-3 0  9997","line2":"2 67937  43.0001 178.4631 0001293 274.1354  85.9350 15.27588957 32926","mean_motion":15.27588957,"eccentricity":0.0001293,"inclination_deg":43.0001,"raan_deg":178.4631,"arg_perigee_deg":274.1354,"mean_anomaly_deg":85.935,"bstar":0.00046336,"rev_number":3292,"period_min":94.266195981672,"perigee_km":482.13512779609,"apogee_km":483.90942358479,"semimajor_km":6861.1592756904,"source":"CELESTRAK","updated_at":"2026-09-20T09:00:43.707603Z"}}}